Zurück zum Katalog

OPS 9751

AktivMilitärMEO
NORAD 10016·PAYLOAD·🇺🇸 United States

Gestartet May 23, 1977 von Cape Canaveral Space Force Station

Loading…

Nächste Überflüge (nächste 24 Stunden)

TLE

AktuellSource: Space-Track

Epoche: Sep 13, 2026, 19:16 UTC

1 10016U 77038A   26256.80334818 -.00000182  00000-0  00000-0 0  9991
2 10016   7.2717 332.2219 1304898 133.7525 251.7849  1.00232315 27344

Verfolge OPS 9751 in Echtzeit mit AllMySat

Download on the App Store